Warning: Javascript must be enabled to use all the features on this page!


Page Loading - Please Wait...

Click to hideNews Bulletins

Peak Streamflow for the Nation

USGS 05247500 CROW WING RIVER NEAR PILLAGER, MN

Cass County, Minnesota
Hydrologic Unit Code 07010106
Latitude  46°18'18", Longitude  94°22'38" NAD27
Drainage area 3,760  square miles
Gage datum 1,151.00 feet above COE1912
Output formats
Table
Graph
Tab-separated file
peakfq (watstore) format
Reselect output format
Water
Year
Date Gage
Height
(feet)
Stream-
flow
(cfs)
1965 1965-04-14   18,3001,6,7
1969 1969-04-12   16,6001,6
1970 1970-05-02   6,3801,6
1971 1971-04-10   7,5001,6
1972 1972-07-24   11,7001,6
1973 1973-03-16   6,1401,6
1974 1974-04-15   12,2001,6
1975 1975-04-21   10,8001,6
1976 1976-04-01   4,4701,6
1977 1977-04-23   1,5201,6
1978 1978-04-01   4,2201,6
1979 1979-04-19   7,9701,6
1980 1980-04-08   2,3901,6
1981 1981-06-19   1,4201,6
1982 1982-04-18   5,4501,6
1983 1983-06-17   4,3101,6
1984 1984-05-09   3,9401,6
1985 1985-03-24   5,6501,6
1986 1986-04-04   10,8001,6
1988 1988-03-28   2,9801,6
1989 1989-04-08   6,3701,6
1990 1990-03-18   4,2701,6
1991 1991-05-06 5.39 3,3801,6
1992 1992-03-11 5.20 2,8806
1993 1993-06-02 7.07 7,3606
1994 1994-05-03   6,2601,6
1995 1995-03-19   6,6001,6
1996 1996-04-15 10.77 13,9006
1997 1997-04-07 11.73 16,1006
1998 1998-05-19 5.832 4,2406
1999 1999-05-14 9.97 10,8006
2000 2000-05-14 5.14 3,9406
2001 2001-04-12 12.11 17,5006
2002 2002-07-10 6.57 5,3106
2003 2003-06-28 7.67 7,3406
2004 2004-09-25 5.26 3,1506
2005 2005-04-02 7.21 6,4606
2006 2006-04-04 7.71 7,3206
2007 2007-04-05 6.932 5,8206
2008 2008-06-16 6.26 4,5506
2009 2009-03-28 10.47 13,4006
2010 2010-03-17 9.39 11,1006
2011 2011-04-09 7.64 7,5606
2012 2012-05-31 8.13 8,5306
2013 2013-05-03 7.71 7,7106
2014 2014-06-18 8.42 9,1106
2015 2015-05-20 8.06 8,3906
2016 2016-07-17 7.52 7,3506
2017 2016-12-04 5.81 4,3006
2018 2018-04-25 8.31 8,8906
2019 2019-03-30 9.41 11,1006
2020 2020-04-06 7.98 8,2406
2021 2021-04-13 7.49 7,2906
?
  Peak Gage-Height Qualification Codes.
?
  Peak Streamflow Qualification Codes.